EST,Max TemperatureF,Mean TemperatureF,Min TemperatureF,Max Dew PointF,MeanDew PointF,Min DewpointF,Max Humidity, Mean Humidity, Min Humidity, Max Sea Level PressureIn, Mean Sea Level PressureIn, Min Sea Level PressureIn, Max VisibilityMiles, Mean VisibilityMiles, Min VisibilityMiles, Max Wind SpeedMPH, Mean Wind SpeedMPH, Max Gust SpeedMPH,PrecipitationIn, CloudCover, Events, WindDirDegrees
2013-1-1,37,34,31,36,32,24,100,89,78,30.18,30.10,30.06,10,6,2,10,5,13,0.05,8,Rain,335
2013-1-2,34,29,23,23,20,16,88,69,49,30.30,30.24,30.17,10,8,6,12,3,16,0.00,1,,325
2013-1-3,40,30,20,25,20,18,96,70,44,30.41,30.33,30.26,10,9,4,16,4,21,0.00,1,,262
2013-1-4,39,32,25,25,24,22,85,70,54,30.44,30.40,30.37,10,10,7,17,5,22,0.00,3,,245
2013-1-5,45,34,23,29,25,21,88,67,45,30.41,30.33,30.22,10,9,7,13,4,15,0.00,3,,217
2013-1-6,41,34,26,34,27,21,81,70,59,30.42,30.22,30.12,10,10,7,21,10,25,0.00,7,,262
2013-1-7,43,32,20,25,22,18,92,71,49,30.50,30.41,30.27,10,7,2,8,2,12,0.00,0,,134
2013-1-8,54,39,24,32,27,21,88,65,41,30.35,30.28,30.25,10,9,6,14,3,18,0.00,0,,194
2013-1-9,58,49,39,45,40,33,82,69,55,30.52,30.39,30.25,10,10,6,9,3,12,0.01,4,Rain,278
2013-1-10,55,48,41,50,41,30,93,76,58,30.51,30.32,30.05,10,9,2,10,4,15,0.13,5,Rain,96
2013-1-11,67,60,53,58,52,46,100,74,48,30.04,29.96,29.89,10,8,2,17,7,24,0.68,5,Rain,193
2013-1-12,69,62,54,63,59,52,100,88,76,30.04,29.94,29.79,10,9,1,18,6,25,T,6,Rain,163
2013-1-13,69,51,33,59,50,30,97,82,66,30.22,29.92,29.76,10,5,1,23,9,31,2.48,8,Rain,237
2013-1-14,33,30,26,27,21,19,89,79,69,30.50,30.36,30.23,10,10,9,12,8,17,0.00,4,,348
2013-1-15,33,29,24,30,25,19,92,79,66,30.37,30.22,30.09,10,6,2,15,7,20,0.26,7,Rain-Snow,24
2013-1-16,34,33,31,30,28,27,92,87,82,30.17,30.09,30.02,7,6,4,9,3,12,0.01,5,Rain,274
2013-1-17,47,39,31,31,26,21,85,67,49,30.44,30.24,30.14,10,9,7,15,5,21,0.00,1,,350
2013-1-18,43,34,24,25,21,16,74,59,43,30.57,30.47,30.32,10,10,10,13,4,18,0.00,0,,169
2013-1-19,56,46,35,28,25,24,64,47,30,30.31,30.16,30.02,10,10,10,21,10,28,0.00,0,,195
2013-1-20,49,39,29,33,15,4,65,43,20,30.28,30.19,30.05,10,10,10,22,9,28,0.00,0,,296
2013-1-21,30,23,16,16,7,-1,63,46,29,30.34,30.24,30.19,10,10,10,24,13,31,0.00,3,,285
2013-1-22,22,17,11,0,-3,-6,55,43,31,30.48,30.41,30.34,10,10,10,18,9,22,0.00,2,,294
2013-1-23,37,26,15,18,9,1,59,48,37,30.42,30.29,30.13,10,10,10,14,5,20,0.00,3,,244
2013-1-24,32,26,20,18,2,-7,62,43,23,30.60,30.47,30.19,10,10,10,12,9,15,0.00,1,,36
2013-1-25,29,26,23,23,18,2,88,62,36,30.40,30.18,30.10,10,7,2,12,5,15,T,7,Snow,196
2013-1-26,38,29,19,23,19,16,92,66,40,30.43,30.32,30.21,10,7,2,9,3,13,0.00,1,,33
2013-1-27,44,35,25,40,27,17,89,69,49,30.44,30.33,30.17,10,8,4,9,5,14,0.12,4,Rain,127
2013-1-28,59,52,44,52,46,39,93,73,53,30.17,30.11,30.08,10,8,1,14,8,22,0.25,7,Rain,187
2013-1-29,67,61,55,58,57,54,78,75,72,30.08,29.88,29.58,10,10,9,17,9,35,0.00,5,,177
2013-1-30,70,52,33,59,46,21,93,78,62,29.72,29.48,29.35,10,8,1,31,15,43,0.87,8,Rain-Thunderstorm,235
2013-1-31,36,28,19,28,20,9,81,64,47,30.16,29.97,29.73,10,6,0,30,15,39,0.01,8,Fog-Snow,268